| time (UTC) | temp F | wind direction | speed knots | gust knots | rain 1hr in | rain 24hr in | rain mn in | humidity % | barometer mb |
| 20260503050053 | 38 | 112 | 0.0 | 0.0 | 0.00 | 0.00 | 0.00 | 86 | 1007.7 |
| 20260503045418 | 38 | 112 | 0.0 | 0.0 | 0.00 | 0.00 | 0.00 | 86 | 1007.7 |
| 20260503044845 | 38 | 112 | 0.0 | 0.0 | 0.00 | 0.00 | 0.00 | 86 | 1007.7 |
| 20260503044242 | 39 | 112 | 0.0 | 0.0 | 0.00 | 0.00 | 0.00 | 86 | 1006.7 |
| 20260503043639 | 39 | 112 | 0.0 | 0.0 | 0.00 | 0.00 | 0.00 | 86 | 1006.7 |
| 20260503043016 | 39 | 112 | 0.0 | 0.0 | 0.00 | 0.00 | 0.00 | 86 | 1006.7 |
| 20260503042443 | 39 | 112 | 0.0 | 0.0 | 0.00 | 0.00 | 0.00 | 85 | 1006.7 |
| 20260503041823 | 39 | 112 | 0.0 | 0.0 | 0.00 | 0.00 | 0.00 | 85 | 1006.7 |
| 20260503040623 | 39 | 112 | 0.0 | 0.0 | 0.00 | 0.00 | 0.00 | 83 | 1006.7 |
| 20260503040047 | 40 | 112 | 0.0 | 0.0 | 0.00 | 0.00 | 0.00 | 83 | 1006.7 |
| 20260503035451 | 40 | 112 | 0.0 | 0.0 | 0.00 | 0.00 | 0.00 | 83 | 1006.7 |
| 20260503034851 | 40 | 112 | 0.0 | 0.0 | 0.00 | 0.00 | 0.00 | 83 | 1006.7 |
| 20260503034216 | 40 | 112 | 0.0 | 0.0 | 0.00 | 0.00 | 0.00 | 81 | 1006.7 |
| 20260503033638 | 40 | 112 | 0.0 | 0.0 | 0.00 | 0.00 | 0.00 | 82 | 1006.7 |
| 20260503032419 | 41 | 112 | 0.0 | 0.0 | 0.00 | 0.00 | 0.00 | 80 | 1006.7 |
| 20260503031839 | 41 | 112 | 0.0 | 0.0 | 0.00 | 0.00 | 0.00 | 81 | 1006.7 |
| 20260503031244 | 41 | 112 | 0.0 | 0.0 | 0.00 | 0.00 | 0.00 | 81 | 1006.7 |
| 20260503030642 | 42 | 112 | 0.0 | 0.0 | 0.00 | 0.00 | 0.00 | 79 | 1006.7 |
| 20260503030024 | 42 | 112 | 0.0 | 0.0 | 0.00 | 0.00 | 0.00 | 79 | 1006.7 |
| 20260503025424 | 42 | 112 | 0.0 | 0.0 | 0.00 | 0.00 | 0.00 | 78 | 1006.7 |
| 20260503024829 | 42 | 112 | 0.0 | 0.0 | 0.00 | 0.00 | 0.00 | 77 | 1006.7 |
| 20260503024233 | 43 | 112 | 0.0 | 0.0 | 0.00 | 0.00 | 0.00 | 75 | 1006.7 |
| 20260503023618 | 43 | 112 | 0.0 | 0.0 | 0.00 | 0.00 | 0.00 | 76 | 1006.7 |
| 20260503023036 | 44 | 112 | 0.0 | 0.0 | 0.00 | 0.00 | 0.00 | 73 | 1006.7 |
| 20260503022451 | 44 | 112 | 0.0 | 0.0 | 0.00 | 0.00 | 0.00 | 72 | 1006.7 |
| 20260503021851 | 44 | 112 | 0.0 | 0.0 | 0.00 | 0.00 | 0.00 | 72 | 1006.7 |
| 20260503021241 | 44 | 112 | 0.0 | 0.0 | 0.00 | 0.00 | 0.00 | 70 | 1006.7 |
| 20260503020644 | 45 | 112 | 0.0 | 0.0 | 0.00 | 0.00 | 0.00 | 71 | 1006.7 |
| 20260503020048 | 45 | 112 | 0.0 | 0.0 | 0.00 | 0.00 | 0.00 | 68 | 1006.7 |
| 20260503014817 | 45 | 112 | 0.0 | 0.0 | 0.00 | 0.00 | 0.00 | 67 | 1006.7 |
| 20260503014252 | 45 | 112 | 0.0 | 0.0 | 0.00 | 0.00 | 0.00 | 68 | 1006.7 |
| 20260503013626 | 45 | 112 | 0.0 | 0.0 | 0.00 | 0.00 | 0.00 | 68 | 1006.7 |
| 20260503013014 | 45 | 112 | 0.0 | 0.0 | 0.00 | 0.00 | 0.00 | 66 | 1006.7 |
| 20260503011811 | 46 | 112 | 0.0 | 0.0 | 0.00 | 0.00 | 0.00 | 65 | 1006.7 |
| 20260503011231 | 46 | 112 | 0.0 | 0.0 | 0.00 | 0.00 | 0.00 | 60 | 1006.0 |
| 20260503010623 | 46 | 112 | 0.0 | 0.0 | 0.00 | 0.00 | 0.00 | 65 | 1006.0 |
| 20260503010028 | 46 | 112 | 0.0 | 0.0 | 0.00 | 0.00 | 0.00 | 65 | 1006.0 |
| 20260503005413 | 46 | 112 | 0.0 | 0.0 | 0.00 | 0.00 | 0.00 | 62 | 1006.0 |
| 20260503004843 | 47 | 112 | 0.0 | 0.0 | 0.00 | 0.00 | 0.00 | 59 | 1006.0 |
| 20260503004211 | 47 | 112 | 0.0 | 0.0 | 0.00 | 0.00 | 0.00 | 60 | 1006.0 |
| 20260503003641 | 47 | 112 | 0.0 | 0.0 | 0.00 | 0.00 | 0.00 | 59 | 1006.0 |
| 20260503003018 | 48 | 112 | 0.0 | 0.0 | 0.00 | 0.00 | 0.00 | 54 | 1006.0 |
| 20260503001815 | 48 | 90 | 0.0 | 0.0 | 0.00 | 0.00 | 0.00 | 56 | 1006.0 |
| 20260503001232 | 49 | 90 | 0.0 | 0.0 | 0.00 | 0.00 | 0.00 | 56 | 1006.0 |
| 20260503000048 | 50 | 90 | 0.0 | 0.0 | 0.00 | 0.00 | 0.00 | 53 | 1006.0 |
| 20260502235410 | 51 | 270 | 0.0 | 0.0 | 0.00 | 0.00 | 0.00 | 49 | 1006.0 |
| 20260502234841 | 51 | 68 | 0.0 | 0.0 | 0.00 | 0.00 | 0.00 | 45 | 1006.0 |
| 20260502234245 | 52 | 202 | 0.0 | 0.0 | 0.00 | 0.00 | 0.00 | 49 | 1005.0 |
| 20260502233641 | 52 | 225 | 0.9 | 0.9 | 0.00 | 0.00 | 0.00 | 44 | 1005.0 |
| 20260502232429 | 52 | 270 | 0.9 | 0.9 | 0.00 | 0.00 | 0.00 | 41 | 1005.0 |
| 20260502231840 | 53 | 202 | 1.7 | 1.7 | 0.00 | 0.00 | 0.00 | 42 | 1005.0 |
| 20260502231212 | 53 | 158 | 0.0 | 0.0 | 0.00 | 0.00 | 0.00 | 39 | 1005.0 |
| 20260502230630 | 53 | 248 | 1.7 | 1.7 | 0.00 | 0.00 | 0.00 | 40 | 1005.0 |
| 20260502230040 | 53 | 158 | 0.0 | 0.0 | 0.00 | 0.00 | 0.00 | 39 | 1005.0 |
| 20260502225434 | 53 | 68 | 1.7 | 1.7 | 0.00 | 0.00 | 0.00 | 39 | 1005.0 |
| 20260502224832 | 54 | 68 | 1.7 | 1.7 | 0.00 | 0.00 | 0.00 | 39 | 1005.0 |
| 20260502224226 | 54 | 112 | 3.5 | 4.3 | 0.00 | 0.00 | 0.00 | 37 | 1005.0 |
| 20260502223035 | 54 | 68 | 2.6 | 2.6 | 0.00 | 0.00 | 0.00 | 37 | 1005.0 |
| 20260502222421 | 54 | 90 | 2.6 | 2.6 | 0.00 | 0.00 | 0.00 | 41 | 1005.0 |
| 20260502221839 | 54 | 112 | 0.0 | 0.0 | 0.00 | 0.00 | 0.00 | 37 | 1005.0 |
| 20260502221254 | 54 | 90 | 1.7 | 1.7 | 0.00 | 0.00 | 0.00 | 41 | 1005.0 |
| 20260502220621 | 54 | 22 | 3.5 | 3.5 | 0.00 | 0.00 | 0.00 | 38 | 1005.0 |
| 20260502220030 | 54 | 68 | 0.0 | 0.0 | 0.00 | 0.00 | 0.00 | 38 | 1005.0 |
| 20260502215411 | 54 | 90 | 1.7 | 1.7 | 0.00 | 0.00 | 0.00 | 38 | 1005.0 |
| 20260502214823 | 55 | 135 | 1.7 | 1.7 | 0.00 | 0.00 | 0.00 | 38 | 1005.0 |
| 20260502213651 | 54 | 112 | 4.3 | 4.3 | 0.00 | 0.00 | 0.00 | 39 | 1005.0 |
| 20260502213041 | 54 | 68 | 3.5 | 4.3 | 0.00 | 0.00 | 0.00 | 38 | 1005.0 |
| 20260502212448 | 54 | 112 | 0.9 | 0.9 | 0.00 | 0.00 | 0.00 | 39 | 1005.0 |
| 20260502211814 | 54 | 90 | 1.7 | 1.7 | 0.00 | 0.00 | 0.00 | 41 | 1005.0 |
| 20260502211238 | 54 | 90 | 1.7 | 1.7 | 0.00 | 0.00 | 0.00 | 39 | 1005.0 |
| 20260502210627 | 55 | 68 | 1.7 | 1.7 | 0.00 | 0.00 | 0.00 | 39 | 1005.0 |
| 20260502210034 | 55 | 158 | 0.0 | 0.0 | 0.00 | 0.00 | 0.00 | 37 | 1005.0 |
| 20260502205414 | 55 | 158 | 2.6 | 2.6 | 0.00 | 0.00 | 0.00 | 36 | 1005.0 |
| 20260502204235 | 55 | 225 | 4.3 | 4.3 | 0.00 | 0.00 | 0.00 | 37 | 1005.0 |
| 20260502203612 | 54 | 225 | 1.7 | 1.7 | 0.00 | 0.00 | 0.00 | 37 | 1005.0 |
| 20260502203052 | 54 | 68 | 4.3 | 4.3 | 0.00 | 0.00 | 0.00 | 38 | 1005.0 |
| 20260502202443 | 54 | 90 | 2.6 | 2.6 | 0.00 | 0.00 | 0.00 | 39 | 1005.0 |
| 20260502201845 | 54 | 90 | 1.7 | 1.7 | 0.00 | 0.00 | 0.00 | 38 | 1005.0 |
| 20260502201211 | 54 | 112 | 1.7 | 1.7 | 0.00 | 0.00 | 0.00 | 40 | 1005.0 |
| 20260502200650 | 55 | 68 | 5.2 | 5.2 | 0.00 | 0.00 | 0.00 | 39 | 1005.0 |
| 20260502200039 | 55 | 68 | 6.1 | 7.0 | 0.00 | 0.00 | 0.00 | 39 | 1005.0 |
| 20260502195414 | 54 | 202 | 0.9 | 0.9 | 0.00 | 0.00 | 0.00 | 36 | 1005.0 |
| 20260502194838 | 54 | 112 | 0.9 | 0.9 | 0.00 | 0.00 | 0.00 | 42 | 1005.0 |
| 20260502194248 | 54 | 90 | 6.1 | 7.0 | 0.00 | 0.00 | 0.00 | 42 | 1005.0 |
| 20260502193634 | 55 | 90 | 3.5 | 3.5 | 0.00 | 0.00 | 0.00 | 42 | 1005.0 |
| 20260502193038 | 55 | 202 | 1.7 | 1.7 | 0.00 | 0.00 | 0.00 | 41 | 1005.0 |
| 20260502192426 | 56 | 248 | 3.5 | 4.3 | 0.00 | 0.00 | 0.00 | 39 | 1005.0 |
| 20260502191852 | 55 | 112 | 1.7 | 1.7 | 0.00 | 0.00 | 0.00 | 38 | 1005.0 |
| 20260502190615 | 54 | 248 | 1.7 | 1.7 | 0.00 | 0.00 | 0.00 | 40 | 1005.0 |
| 20260502190018 | 54 | 112 | 2.6 | 3.5 | 0.00 | 0.00 | 0.00 | 39 | 1005.0 |
| 20260502185437 | 54 | 68 | 2.6 | 2.6 | 0.00 | 0.00 | 0.00 | 41 | 1006.0 |
| 20260502184255 | 55 | 112 | 0.9 | 0.9 | 0.00 | 0.00 | 0.00 | 38 | 1006.0 |
| 20260502183654 | 55 | 248 | 1.7 | 1.7 | 0.00 | 0.00 | 0.00 | 37 | 1006.0 |
| 20260502183016 | 55 | 135 | 0.9 | 0.9 | 0.00 | 0.00 | 0.00 | 37 | 1006.0 |
| 20260502182440 | 54 | 225 | 4.3 | 5.2 | 0.00 | 0.00 | 0.00 | 37 | 1006.0 |
| 20260502181833 | 55 | 180 | 3.5 | 4.3 | 0.00 | 0.00 | 0.00 | 38 | 1006.0 |
| 20260502181254 | 55 | 248 | 4.3 | 4.3 | 0.00 | 0.00 | 0.00 | 38 | 1006.0 |
| 20260502180621 | 56 | 202 | 0.9 | 0.9 | 0.00 | 0.00 | 0.00 | 38 | 1006.0 |
| 20260502164244 | 54 | 292 | 1.7 | 1.7 | 0.00 | 0.00 | 0.00 | 36 | 1006.0 |
| 20260502163631 | 55 | 68 | 5.2 | 6.1 | 0.00 | 0.00 | 0.00 | 36 | 1006.0 |
| 20260502163053 | 56 | 112 | 4.3 | 4.3 | 0.00 | 0.00 | 0.00 | 37 | 1006.0 |
| 20260502162442 | 56 | 112 | 3.5 | 3.5 | 0.00 | 0.00 | 0.00 | 36 | 1006.0 |
| 20260502161816 | 57 | 90 | 0.9 | 0.9 | 0.00 | 0.00 | 0.00 | 37 | 1006.0 |
| 20260502161221 | 57 | 68 | 2.6 | 3.5 | 0.00 | 0.00 | 0.00 | 35 | 1006.0 |
| 20260502160623 | 56 | 68 | 2.6 | 2.6 | 0.00 | 0.00 | 0.00 | 35 | 1006.0 |
| 20260502151833 | 55 | 68 | 4.3 | 4.3 | 0.00 | 0.00 | 0.00 | 38 | 1006.0 |
| 20260502151241 | 55 | 68 | 4.3 | 4.3 | 0.00 | 0.00 | 0.00 | 38 | 1006.0 |
| 20260502150650 | 55 | 112 | 4.3 | 4.3 | 0.00 | 0.00 | 0.00 | 36 | 1006.0 |
| 20260502130631 | 49 | 112 | 1.7 | 1.7 | 0.00 | 0.00 | 0.00 | 56 | 1006.7 |
| 20260502123635 | 46 | 158 | 0.0 | 0.0 | 0.00 | 0.00 | 0.00 | 71 | 1006.7 |
| 20260502122440 | 45 | 158 | 0.0 | 0.0 | 0.00 | 0.00 | 0.00 | 72 | 1006.7 |
| 20260502121222 | 44 | 68 | 0.0 | 0.0 | 0.00 | 0.00 | 0.00 | 78 | 1006.7 |
| 20260502120644 | 43 | 68 | 0.0 | 0.0 | 0.00 | 0.00 | 0.00 | 78 | 1006.7 |
| 20260502115451 | 42 | 68 | 0.0 | 0.0 | 0.00 | 0.00 | 0.00 | 78 | 1006.7 |
| 20260502114813 | 42 | 68 | 0.0 | 0.0 | 0.00 | 0.00 | 0.00 | 79 | 1006.7 |
| 20260502114232 | 42 | 68 | 0.0 | 0.0 | 0.00 | 0.00 | 0.00 | 79 | 1006.7 |
| 20260502113611 | 42 | 68 | 0.0 | 0.0 | 0.00 | 0.00 | 0.00 | 81 | 1006.7 |
| 20260502113039 | 42 | 68 | 0.0 | 0.0 | 0.00 | 0.00 | 0.00 | 80 | 1006.7 |
| 20260502112437 | 41 | 68 | 0.0 | 0.0 | 0.00 | 0.00 | 0.00 | 82 | 1006.7 |
| 20260502111828 | 41 | 68 | 0.0 | 0.0 | 0.00 | 0.00 | 0.00 | 83 | 1006.7 |
| 20260502111226 | 41 | 68 | 0.0 | 0.0 | 0.00 | 0.00 | 0.00 | 82 | 1006.7 |
| 20260502110017 | 41 | 68 | 0.0 | 0.0 | 0.00 | 0.00 | 0.00 | 82 | 1006.7 |
| 20260502105418 | 41 | 68 | 0.0 | 0.0 | 0.00 | 0.00 | 0.00 | 81 | 1006.0 |
| 20260502104829 | 41 | 68 | 0.0 | 0.0 | 0.00 | 0.00 | 0.00 | 81 | 1006.0 |
| 20260502104217 | 41 | 68 | 0.0 | 0.0 | 0.00 | 0.00 | 0.00 | 81 | 1006.0 |
| 20260502103635 | 42 | 68 | 0.0 | 0.0 | 0.00 | 0.00 | 0.00 | 81 | 1006.0 |
| 20260502103043 | 41 | 68 | 0.0 | 0.0 | 0.00 | 0.00 | 0.00 | 81 | 1006.0 |
| 20260502102419 | 41 | 68 | 0.0 | 0.0 | 0.00 | 0.00 | 0.00 | 81 | 1006.7 |
| 20260502101846 | 42 | 68 | 0.0 | 0.0 | 0.00 | 0.00 | 0.00 | 79 | 1006.7 |
| 20260502100630 | 42 | 68 | 0.0 | 0.0 | 0.00 | 0.00 | 0.00 | 79 | 1006.0 |
| 20260502091252 | 43 | 68 | 0.0 | 0.0 | 0.00 | 0.00 | 0.00 | 73 | 1006.7 |
| 20260502090624 | 44 | 68 | 0.0 | 0.0 | 0.00 | 0.00 | 0.00 | 72 | 1006.7 |
| 20260502071224 | 48 | 68 | 0.0 | 0.0 | 0.00 | 0.00 | 0.00 | 57 | 1006.0 |
| 20260502070652 | 48 | 68 | 0.0 | 0.0 | 0.00 | 0.00 | 0.00 | 58 | 1006.0 |
| 20260502070035 | 48 | 90 | 0.0 | 0.0 | 0.00 | 0.00 | 0.00 | 56 | 1006.0 |
| 20260502063651 | 49 | 135 | 0.0 | 0.0 | 0.00 | 0.00 | 0.00 | 54 | 1006.0 |
| 20260502063042 | 49 | 135 | 0.0 | 0.0 | 0.00 | 0.00 | 0.00 | 57 | 1006.0 |
| 20260502061814 | 49 | 135 | 0.0 | 0.0 | 0.00 | 0.00 | 0.00 | 56 | 1006.0 |
| 20260502061249 | 49 | 135 | 0.0 | 0.0 | 0.00 | 0.00 | 0.00 | 55 | 1006.7 |
| 20260502060622 | 49 | 135 | 0.0 | 0.0 | 0.00 | 0.00 | 0.00 | 53 | 1006.7 |
| 20260502060047 | 49 | 180 | 0.0 | 0.0 | 0.00 | 0.00 | 0.00 | 54 | 1006.7 |
| 20260502055448 | 49 | 112 | 2.6 | 2.6 | 0.00 | 0.00 | 0.00 | 52 | 1006.7 |
| 20260502054820 | 50 | 112 | 1.7 | 1.7 | 0.00 | 0.00 | 0.00 | 53 | 1006.7 |
| 20260502054251 | 50 | 68 | 1.7 | 1.7 | 0.00 | 0.00 | 0.00 | 55 | 1006.0 |
| 20260502053021 | 50 | 68 | 1.7 | 1.7 | 0.00 | 0.00 | 0.00 | 53 | 1006.0 |
| 20260502052415 | 50 | 112 | 3.5 | 4.3 | 0.00 | 0.00 | 0.00 | 52 | 1006.0 |
| 20260502051826 | 50 | 112 | 3.5 | 4.3 | 0.00 | 0.00 | 0.00 | 50 | 1006.0 |
| 20260502051220 | 50 | 90 | 2.6 | 2.6 | 0.00 | 0.00 | 0.00 | 54 | 1006.0 |
| 20260502050628 | 51 | 68 | 5.2 | 5.2 | 0.00 | 0.00 | 0.00 | 58 | 1006.0 |